User: anonymous   Login
Location: Mentone
(34.5413°N, 85.5351°W)
Time: 12:49:31
(UTC-05:00)
Language:

SL-8 R/B - Orbit

View from above orbital plane
View from above orbital plane
View from above satellite
View from above satellite

Ground track
Ground track

The orbit data is extracted from the following two-line orbital elements,

1 33066U 08031G   16120.18882630  .00000015  00000-0  35256-4 0  9997
2 33066  48.4439 246.6975 0007800 170.5074 251.9744 14.69418211421871
Epoch (UTC): 29 April 2016 04:31:54
Eccentricity: 0.0007800
inclination: 48.4439°
perigee height: 657 km
apogee height: 668 km
right ascension of ascending node: 246.6975°
argument of perigee: 170.5074°
revolutions per day: 14.69418211
mean anomaly at epoch: 251.9744°
orbit number at epoch: 42187

The dashed part of the orbit path shows where the satellite is in the earth's shadow,  

DLR